Temp
11 11 10 10 10 10 10 10 10 10 11 12 12 12 12 12 11 11 11 11 11 11 10 10 10 10 11 10 10 10 10 11 11 10 10 11 11 11 11 11 11 11 11 11 11 11 11 11 11 11 11 11
11 11 10 10 10 9 9 9 9 9 10 10 10 10 11 11 11 11 11 10 10 10 10 10 10 10 10 10 10 10 10 10 10 10 10 10 10 11 11 11 11 11 11 11 10 10 10 10 10 10 11 11
11 11 10 10 9 9 9 9 9 9 9 9 9 9 10 10 10 10 10 10 10 10 10 10 10 10 10 11 10 10 10 10 10 10 10 10 10 10 11 11 11 11 11 10 10 10 10 10 10 10 10 10
10 10 10 9 9 9 9 9 8 8 9 9 9 8 9 10 9 10 10 10 10 10 10 10 10 10 10 11 11 10 10 10 10 10 10 10 10 10 10 11 10 10 10 10 10 10 9 9 9 9 10 10
9 9 9 9 9 9 8 8 8 8 9 9 9 8 8 9 9 9 10 10 10 9 9 10 10 10 10 10 10 10 10 10 10 10 10 10 10 10 10 10 10 9 9 9 9 9 9 9 9 9 9 9
8 8 7 7 8 8 8 8 8 8 8 9 9 8 8 8 8 8 9 9 9 9 8 9 9 10 10 10 10 10 10 10 9 9 10 10 9 9 9 9 9 9 9 9 9 9 8 8 9 9 9 9
6 6 6 6 7 7 7 7 8 8 8 8 8 8 8 8 8 8 8 8 8 9 9 8 9 9 10 10 10 10 10 9 9 9 9 9 9 9 9 9 9 9 9 8 8 8 8 8 8 8 8 8
5 5 5 5 5 6 7 7 7 7 7 8 8 8 8 8 8 8 8 8 8 8 9 9 8 9 9 10 9 10 9 9 9 8 9 9 9 9 8 8 8 8 8 8 8 8 8 8 8 8 8 8
3 3 3 4 4 5 5 6 6 6 6 7 7 7 8 8 8 8 8 8 8 8 8 9 8 8 9 9 9 9 9 9 8 8 8 9 9 9 8 8 8 8 7 7 7 7 8 8 8 8 8 8
2 2 2 2 3 3 3 4 4 5 5 6 6 7 7 8 8 7 8 8 8 8 8 8 8 8 8 8 8 8 8 8 8 8 8 8 9 9 8 8 8 7 7 7 7 7 7 7 7 8 8 8
2 2 2 2 2 2 3 3 3 4 4 5 5 6 6 7 7 7 7 8 8 8 8 8 8 8 8 8 8 7 7 7 7 8 8 8 8 8 8 8 7 7 7 7 7 7 7 7 7 8 8 8
2 2 2 2 2 2 2 3 3 3 4 4 4 5 5 6 6 7 7 7 7 7 7 7 8 8 8 8 8 7 7 7 7 7 7 8 8 8 8 7 7 6 7 7 7 7 7 7 7 7 8 8
2 2 2 2 2 2 2 3 3 3 3 4 4 4 4 5 5 5 6 7 7 7 7 7 7 8 8 7 7 7 7 7 7 7 7 7 8 8 8 7 6 6 6 6 6 6 7 7 7 7 7 7
1 2 2 2 2 2 2 2 3 3 3 3 4 4 4 4 4 4 5 6 6 6 6 7 7 7 7 7 7 7 7 6 6 6 7 7 7 7 8 7 7 6 6 6 6 6 6 7 7 7 7 7
1 1 2 2 2 2 2 2 2 3 3 3 3 3 3 3 3 3 4 4 5 5 6 6 7 7 7 7 7 6 6 6 6 7 7 7 6 7 7 7 7 6 6 6 6 6 6 6 7 7 7 7
1 1 1 1 2 2 2 2 2 2 3 3 3 3 3 3 3 3 3 3 4 4 5 5 6 6 7 7 6 6 6 6 6 6 6 6 6 6 6 7 7 6 6 6 6 6 6 6 6 6 6 6
1 1 1 1 1 1 2 2 2 2 2 2 3 3 3 3 3 3 3 3 3 3 4 4 5 6 6 6 6 6 6 6 6 6 6 6 6 6 6 6 6 6 5 5 6 6 6 6 6 6 6 6
0 0 0 0 0 1 1 1 2 2 2 2 2 2 3 3 3 3 3 3 3 3 3 3 4 4 5 5 6 6 6 6 6 6 6 6 6 6 6 6 6 5 5 5 5 5 5 5 6 6 6 6
-0 -0 -0 -0 0 0 0 0 1 1 1 1 1 1 2 2 2 2 2 3 3 3 2 2 3 3 3 4 5 5 6 6 5 6 6 6 6 6 6 6 6 5 5 5 5 5 5 5 5 5 5 6
-0 -1 -1 -1 -1 -0 -0 -0 -0 0 1 1 1 1 1 2 2 2 2 2 2 3 2 2 2 2 2 2 3 3 4 5 5 5 5 6 6 6 6 6 6 6 5 5 5 5 5 5 5 5 5 5
-1 -1 -1 -1 -2 -1 -1 -1 -1 -1 -0 -0 0 0 0 1 1 1 1 2 2 2 2 2 2 1 1 1 2 2 2 3 4 4 4 5 5 5 5 5 5 6 6 5 5 5 4 4 5 5 5 5
-1 -1 -1 -1 -1 -2 -2 -2 -2 -2 -2 -1 -1 -1 -0 -0 -0 0 0 1 1 1 1 2 2 1 1 1 1 1 1 2 3 3 3 3 4 4 5 5 5 5 5 5 5 5 5 4 4 5 5 5
-2 -2 -2 -2 -2 -2 -3 -3 -4 -3 -3 -3 -2 -2 -1 -1 -1 -1 -1 -1 -0 -0 0 0 1 1 1 1 0 0 0 1 1 2 2 2 3 3 3 4 4 4 4 4 4 5 5 4 4 4 4 4
-3 -2 -2 -3 -3 -3 -3 -4 -4 -4 -4 -4 -4 -3 -3 -3 -2 -2 -2 -2 -1 -1 -1 -1 -1 -0 0 1 0 -0 -0 0 0 1 1 1 1 2 2 2 3 3 3 3 4 4 5 4 4 4 4 4
-4 -3 -3 -3 -4 -4 -5 -5 -5 -5 -5 -5 -5 -5 -4 -4 -4 -3 -3 -3 -2 -2 -2 -2 -2 -1 -1 -1 -0 -0 -0 -0 -0 -0 0 0 0 1 1 1 1 2 2 2 2 3 4 4 4 4 4 4
-5 -5 -5 -5 -6 -6 -6 -6 -6 -6 -6 -6 -6 -5 -5 -5 -5 -4 -4 -4 -4 -3 -3 -3 -3 -2 -2 -2 -2 -2 -1 -1 -1 -1 -1 -0 -0 -0 0 0 0 0 0 1 1 1 1 3 4 3 3 4
-6 -7 -6 -6 -6 -6 -6 -7 -6 -6 -6 -6 -6 -6 -6 -6 -6 -5 -5 -5 -5 -4 -4 -4 -4 -3 -3 -3 -3 -3 -2 -2 -1 -1 -1 -1 -1 -1 -1 -1 -0 -0 -0 -1 -0 -0 -1 0 2 3 3 3
-7 -7 -7 -7 -7 -7 -7 -7 -7 -7 -7 -7 -7 -7 -7 -7 -6 -6 -6 -6 -6 -5 -5 -5 -5 -4 -4 -4 -4 -4 -3 -3 -3 -2 -2 -1 -1 -1 -1 -1 -1 -1 -1 -1 -1 -1 -1 -1 0 1 2 2
-7 -7 -7 -8 -8 -8 -8 -7 -8 -8 -7 -8 -8 -8 -7 -7 -7 -7 -7 -6 -6 -6 -6 -6 -5 -5 -5 -5 -5 -4 -4 -4 -4 -4 -3 -3 -2 -2 -2 -2 -2 -2 -2 -2 -2 -2 -2 -1 -1 -0 1 1
-7 -7 -8 -8 -8 -8 -8 -8 -8 -8 -8 -8 -8 -8 -8 -8 -8 -8 -7 -7 -7 -7 -7 -6 -6 -6 -6 -5 -5 -5 -5 -5 -5 -5 -4 -4 -3 -3 -3 -3 -3 -3 -2 -2 -3 -3 -3 -2 -2 -2 -1 -1
-7 -7 -8 -8 -8 -8 -9 -9 -8 -8 -8 -8 -8 -8 -8 -9 -8 -8 -8 -8 -8 -8 -7 -7 -7 -6 -6 -6 -6 -6 -6 -5 -5 -5 -5 -5 -5 -4 -4 -4 -4 -3 -3 -3 -3 -3 -3 -3 -3 -3 -2 -2
Height
1532 1530 1528 1526 1524 1521 1519 1517 1516 1514 1512 1509 1506 1503 1500 1498 1497 1498 1499 1499 1500 1501 1501 1502 1500 1499 1500 1501 1502 1503 1503 1503 1504 1505 1504 1503 1504 1506 1508 1509 1511 1511 1512 1513 1514 1516 1516 1515 1516 1518 1520 1522
1531 1529 1527 1526 1524 1521 1519 1516 1515 1514 1512 1509 1506 1504 1502 1500 1500 1500 1500 1500 1501 1501 1502 1503 1502 1501 1501 1501 1502 1503 1502 1503 1504 1505 1504 1503 1504 1507 1508 1508 1509 1510 1511 1512 1514 1515 1516 1516 1516 1518 1519 1520
1530 1528 1527 1525 1524 1521 1518 1516 1514 1513 1512 1510 1508 1507 1505 1504 1503 1504 1503 1503 1503 1503 1503 1504 1504 1502 1502 1502 1502 1502 1502 1503 1504 1504 1503 1503 1505 1506 1507 1507 1508 1510 1510 1511 1513 1514 1516 1516 1516 1517 1518 1519
1529 1527 1526 1524 1523 1521 1518 1516 1514 1513 1512 1510 1508 1507 1506 1505 1505 1505 1505 1505 1504 1504 1504 1505 1504 1504 1503 1503 1503 1503 1504 1505 1505 1504 1502 1503 1505 1505 1506 1506 1507 1509 1509 1510 1512 1514 1515 1516 1516 1517 1517 1518
1527 1526 1524 1523 1521 1520 1517 1515 1514 1513 1512 1510 1509 1506 1506 1505 1505 1505 1505 1505 1504 1504 1504 1504 1505 1505 1504 1504 1504 1504 1505 1505 1505 1504 1502 1503 1504 1505 1505 1506 1507 1508 1509 1510 1511 1513 1514 1515 1516 1517 1517 1517
1527 1525 1523 1521 1520 1518 1517 1515 1514 1513 1512 1510 1509 1507 1506 1505 1505 1505 1505 1504 1504 1504 1504 1504 1505 1505 1504 1504 1504 1504 1504 1504 1503 1502 1501 1502 1503 1504 1505 1506 1507 1508 1508 1509 1510 1511 1513 1514 1515 1516 1516 1516
1527 1525 1523 1520 1519 1517 1516 1515 1514 1512 1511 1510 1508 1507 1506 1505 1505 1505 1505 1504 1504 1503 1503 1503 1504 1504 1504 1503 1503 1503 1503 1503 1502 1500 1500 1501 1502 1503 1504 1505 1507 1508 1508 1509 1509 1510 1511 1513 1514 1514 1515 1515
1527 1525 1523 1521 1518 1517 1515 1514 1513 1512 1511 1509 1508 1507 1506 1505 1505 1504 1504 1503 1503 1503 1503 1503 1503 1503 1502 1502 1502 1503 1502 1502 1502 1500 1500 1501 1502 1502 1503 1504 1506 1507 1507 1508 1509 1509 1510 1512 1513 1513 1514 1514
1528 1526 1524 1521 1519 1517 1515 1514 1512 1511 1510 1509 1508 1507 1506 1505 1504 1503 1503 1502 1503 1503 1502 1502 1502 1502 1502 1501 1501 1502 1502 1501 1501 1500 1501 1501 1501 1502 1503 1504 1505 1506 1506 1507 1508 1508 1509 1511 1512 1512 1513 1514
1529 1527 1525 1522 1520 1518 1516 1514 1513 1511 1509 1508 1507 1506 1505 1504 1503 1503 1502 1501 1501 1501 1501 1501 1501 1501 1501 1501 1500 1501 1501 1500 1500 1500 1500 1500 1500 1501 1502 1503 1504 1505 1505 1506 1507 1507 1508 1509 1510 1511 1512 1513
1531 1528 1526 1524 1522 1520 1517 1516 1514 1512 1510 1508 1507 1505 1504 1503 1502 1502 1501 1500 1500 1499 1499 1499 1500 1500 1500 1500 1500 1499 1500 1500 1500 1500 1499 1500 1500 1500 1501 1502 1503 1504 1505 1505 1505 1506 1507 1508 1509 1510 1511 1512
1533 1530 1528 1526 1524 1521 1519 1517 1515 1513 1511 1510 1508 1506 1505 1503 1502 1501 1500 1499 1499 1498 1497 1497 1498 1499 1499 1499 1499 1498 1499 1499 1499 1499 1499 1499 1499 1500 1500 1501 1502 1503 1503 1504 1504 1505 1506 1507 1508 1509 1509 1510
1534 1532 1530 1527 1525 1523 1520 1519 1517 1515 1513 1511 1509 1507 1505 1504 1502 1501 1499 1498 1497 1497 1496 1495 1496 1496 1497 1497 1497 1497 1497 1498 1498 1498 1498 1498 1499 1499 1500 1500 1501 1501 1501 1502 1502 1503 1504 1505 1506 1507 1508 1509
1536 1534 1531 1529 1526 1524 1522 1520 1518 1516 1514 1512 1510 1508 1506 1505 1503 1501 1499 1498 1496 1495 1495 1494 1493 1494 1494 1495 1496 1496 1496 1496 1496 1496 1497 1497 1497 1498 1499 1499 1500 1500 1500 1500 1501 1502 1503 1504 1505 1506 1507 1508
1536 1534 1532 1530 1528 1526 1523 1521 1519 1517 1515 1513 1511 1509 1507 1505 1504 1502 1500 1498 1496 1494 1494 1493 1492 1491 1491 1492 1494 1494 1494 1495 1495 1495 1495 1496 1496 1497 1498 1498 1499 1499 1498 1498 1499 1500 1501 1502 1503 1504 1505 1507
1537 1535 1533 1531 1530 1527 1525 1523 1520 1519 1517 1515 1513 1510 1508 1506 1504 1502 1500 1498 1496 1494 1492 1492 1491 1490 1489 1490 1491 1492 1492 1493 1494 1494 1494 1494 1495 1496 1496 1497 1497 1497 1497 1497 1497 1498 1499 1501 1502 1503 1504 1505
1537 1536 1534 1532 1530 1529 1526 1524 1522 1519 1518 1515 1513 1511 1509 1507 1504 1502 1501 1499 1496 1494 1492 1491 1489 1488 1488 1488 1488 1489 1490 1491 1492 1492 1493 1493 1493 1494 1494 1495 1496 1496 1495 1495 1496 1497 1498 1499 1500 1501 1502 1503
1538 1536 1535 1533 1531 1529 1527 1525 1523 1520 1518 1516 1514 1512 1509 1507 1505 1502 1501 1498 1496 1494 1492 1490 1489 1487 1486 1486 1486 1486 1487 1488 1489 1490 1491 1491 1491 1492 1492 1493 1493 1494 1494 1494 1494 1495 1496 1497 1498 1499 1500 1501
1539 1537 1535 1533 1531 1529 1527 1525 1523 1521 1519 1517 1514 1512 1510 1507 1505 1503 1500 1498 1496 1494 1492 1490 1489 1487 1486 1484 1484 1484 1484 1484 1485 1486 1488 1488 1489 1489 1490 1490 1491 1491 1492 1492 1492 1493 1494 1495 1496 1497 1498 1499
1538 1537 1535 1533 1531 1529 1527 1525 1523 1521 1519 1516 1514 1512 1510 1507 1505 1502 1500 1498 1496 1494 1492 1490 1489 1488 1486 1484 1483 1483 1482 1482 1481 1482 1483 1485 1485 1486 1487 1488 1488 1489 1489 1489 1490 1491 1492 1493 1494 1495 1496 1497
1538 1536 1534 1533 1531 1529 1527 1524 1522 1520 1518 1516 1514 1511 1509 1507 1505 1502 1500 1497 1495 1493 1492 1490 1489 1488 1486 1485 1483 1482 1481 1480 1478 1478 1479 1480 1481 1482 1483 1484 1485 1486 1487 1487 1488 1488 1489 1490 1491 1492 1493 1494
1538 1536 1534 1531 1529 1527 1526 1524 1522 1519 1517 1515 1513 1511 1508 1506 1504 1502 1499 1497 1495 1493 1491 1490 1488 1487 1486 1485 1483 1482 1481 1478 1476 1475 1475 1476 1477 1479 1479 1480 1482 1483 1484 1485 1485 1486 1486 1488 1489 1489 1490 1491
1538 1536 1533 1531 1528 1526 1524 1522 1521 1519 1516 1514 1512 1510 1507 1505 1503 1501 1499 1497 1494 1492 1490 1489 1487 1486 1484 1483 1482 1482 1480 1477 1474 1474 1474 1474 1474 1475 1476 1477 1478 1479 1480 1481 1482 1483 1484 1485 1486 1487 1488 1489
1537 1535 1533 1531 1528 1525 1523 1521 1519 1517 1515 1514 1511 1509 1507 1505 1502 1500 1498 1496 1494 1492 1490 1487 1485 1483 1482 1480 1479 1479 1478 1475 1473 1473 1473 1473 1472 1472 1473 1474 1474 1475 1476 1478 1479 1480 1481 1482 1483 1483 1485 1486
1535 1534 1532 1530 1527 1525 1523 1520 1518 1517 1515 1513 1511 1508 1506 1504 1502 1500 1498 1495 1494 1491 1489 1487 1485 1483 1481 1479 1478 1478 1477 1476 1474 1473 1473 1472 1471 1471 1471 1471 1471 1472 1473 1474 1475 1476 1477 1478 1479 1480 1481 1482
1534 1532 1531 1529 1527 1524 1522 1520 1518 1516 1514 1512 1510 1508 1506 1504 1501 1499 1497 1495 1493 1491 1489 1487 1485 1483 1481 1479 1478 1477 1476 1475 1474 1474 1473 1472 1471 1470 1470 1470 1470 1469 1470 1472 1472 1473 1474 1475 1475 1476 1477 1478
1533 1531 1530 1528 1526 1524 1522 1520 1517 1515 1513 1511 1510 1507 1505 1503 1501 1499 1497 1495 1493 1491 1489 1487 1485 1483 1481 1479 1478 1476 1475 1473 1473 1473 1473 1471 1470 1469 1469 1469 1469 1469 1469 1470 1470 1471 1472 1472 1472 1472 1473 1473
1531 1529 1528 1526 1524 1522 1520 1518 1516 1514 1512 1510 1509 1507 1505 1503 1501 1499 1497 1495 1493 1491 1489 1487 1485 1483 1481 1479 1477 1476 1474 1472 1471 1471 1471 1471 1469 1469 1469 1470 1469 1468 1467 1467 1468 1470 1470 1470 1470 1469 1469 1469
1530 1528 1526 1524 1523 1521 1519 1518 1515 1513 1511 1509 1507 1505 1504 1502 1500 1498 1496 1495 1493 1491 1489 1487 1485 1483 1481 1479 1478 1476 1474 1472 1471 1471 1471 1470 1469 1469 1469 1470 1469 1468 1466 1466 1466 1468 1468 1469 1468 1467 1466 1467
1528 1527 1525 1523 1522 1520 1519 1517 1515 1512 1510 1507 1506 1504 1502 1501 1499 1497 1496 1494 1492 1491 1489 1487 1485 1483 1481 1480 1478 1476 1475 1473 1472 1472 1471 1470 1469 1469 1469 1470 1469 1467 1466 1465 1465 1466 1467 1468 1467 1465 1465 1466
1527 1525 1524 1522 1520 1519 1517 1515 1513 1511 1509 1506 1504 1502 1501 1499 1498 1496 1495 1493 1492 1490 1488 1486 1485 1483 1481 1480 1478 1476 1475 1474 1473 1472 1471 1470 1469 1468 1468 1469 1469 1467 1465 1463 1464 1464 1465 1466 1465 1465 1464 1465
Wind_Speed
23 24 24 24 25 27 29 29 28 27 27 24 24 26 22 15 9 10 15 18 18 14 10 5 3 4 2 4 4 7 6 6 9 10 11 10 9 11 12 12 13 13 15 14 15 19 18 18 20 20 20 21
24 24 23 23 23 24 26 27 27 24 22 21 22 25 19 10 3 3 4 5 5 3 5 6 6 6 7 8 8 6 6 7 11 12 12 12 9 10 11 11 10 11 16 17 16 17 17 18 20 21 22 21
26 24 23 22 21 22 23 23 24 21 15 13 14 16 13 9 9 8 6 6 6 7 9 11 9 9 9 9 10 8 8 8 11 13 14 13 13 14 14 13 12 11 14 18 17 15 16 16 18 21 22 21
26 24 22 21 19 19 19 19 19 16 11 8 8 8 9 11 14 14 9 6 9 11 9 11 12 12 12 11 12 12 12 13 13 14 15 14 14 15 14 13 13 13 14 17 19 17 16 15 15 17 18 18
26 24 22 20 19 16 17 16 13 12 9 5 2 2 6 9 11 12 11 12 13 12 9 10 14 16 17 13 12 14 14 17 18 18 17 16 15 13 12 13 14 14 15 16 19 20 18 17 16 16 16 16
25 23 22 20 19 15 15 14 11 11 9 5 2 2 4 8 10 10 11 13 15 15 13 14 15 15 16 13 12 14 15 17 20 22 21 18 15 12 11 13 15 16 15 16 17 18 19 18 17 16 16 17
24 23 22 21 20 17 15 13 11 12 10 8 6 4 5 9 12 11 11 12 13 15 16 17 15 14 13 11 11 12 15 17 17 20 21 17 12 12 13 14 16 18 16 15 16 17 18 18 17 16 15 16
27 25 24 24 22 20 18 16 13 12 12 11 10 8 9 12 14 13 11 11 13 15 16 16 15 14 13 12 12 12 15 18 16 14 16 14 12 13 13 13 16 18 16 15 17 18 18 18 17 17 16 15
32 29 27 26 25 23 21 20 17 15 14 14 14 13 14 14 15 15 13 13 14 15 16 17 16 15 14 13 13 14 16 19 18 14 14 14 14 14 14 13 14 16 17 16 17 20 20 20 18 17 17 16
33 32 30 28 27 27 25 23 22 20 18 18 18 17 17 16 15 16 16 15 15 15 17 18 17 17 16 14 15 17 19 21 21 19 17 16 16 15 15 15 14 15 18 19 18 20 22 21 19 17 16 15
32 32 31 30 29 28 28 27 25 24 23 22 22 20 19 17 15 14 16 18 18 18 18 19 19 19 18 16 17 19 20 21 23 22 19 17 16 16 17 18 16 16 18 20 20 21 23 23 20 17 14 13
31 31 31 31 30 29 29 28 27 27 27 26 25 23 21 18 17 16 15 17 21 22 20 20 20 20 20 19 19 19 20 21 23 23 21 17 17 19 21 20 16 16 18 21 21 22 24 23 21 18 16 14
30 30 30 30 31 30 29 28 28 28 28 28 27 26 24 21 19 18 17 17 19 22 23 22 19 19 21 20 20 21 21 23 24 23 22 20 21 24 25 23 19 16 17 21 22 23 25 24 22 20 18 17
31 30 30 30 31 31 30 29 28 28 28 28 28 28 27 25 22 20 18 18 18 19 22 23 21 19 20 20 22 24 24 25 25 24 23 23 25 26 26 24 20 17 17 21 24 24 26 26 24 22 21 20
31 30 30 30 30 30 30 30 28 28 27 27 27 28 28 27 25 23 20 18 18 18 19 21 21 21 21 21 23 25 26 26 26 25 25 26 26 26 26 24 20 18 17 20 25 26 27 27 25 24 23 23
31 31 30 29 29 29 30 30 30 28 27 27 26 27 28 28 27 26 24 21 18 17 17 18 19 21 22 22 24 26 26 27 27 28 29 28 26 26 25 24 21 20 19 20 26 28 28 28 27 26 25 25
31 31 30 30 28 28 28 28 29 29 28 27 27 27 27 27 27 26 25 23 22 19 17 18 18 20 23 24 25 26 26 27 28 29 31 30 28 28 26 25 23 22 21 20 26 30 29 30 29 27 27 26
31 31 30 29 28 27 27 26 27 28 28 27 26 26 26 26 26 26 26 25 24 22 20 19 18 17 20 23 25 27 28 29 30 30 31 31 30 29 28 27 26 24 23 20 25 32 32 31 31 30 29 27
32 31 30 30 29 28 27 26 25 26 26 26 26 25 25 25 26 26 25 25 24 23 22 20 19 18 16 18 20 24 29 30 29 30 32 33 32 31 31 29 27 26 25 22 23 31 34 33 33 31 30 28
34 32 31 30 29 28 28 27 25 25 24 25 25 25 24 24 25 25 25 25 24 23 23 23 21 19 17 15 15 17 23 27 27 28 31 33 33 33 33 31 29 28 27 25 23 28 34 35 33 32 31 29
35 34 33 31 30 28 27 27 26 25 24 23 23 24 23 23 23 23 24 24 23 23 22 23 23 21 20 17 15 15 16 20 23 26 28 30 32 33 33 32 32 31 30 27 24 25 32 35 34 33 32 31
34 34 35 34 32 31 28 27 26 25 24 23 22 22 22 22 21 21 22 22 22 22 21 20 21 22 22 20 18 17 15 15 17 20 22 26 30 32 33 33 32 32 31 29 26 25 28 33 34 33 32 32
35 34 34 33 33 32 31 29 26 25 23 22 22 21 21 21 21 20 20 21 21 21 21 19 19 20 22 23 22 21 19 15 14 16 17 20 25 28 30 32 33 31 29 27 26 25 25 30 33 33 33 32
36 35 34 33 32 31 31 29 27 25 24 22 21 21 21 20 20 20 20 19 19 19 20 20 19 18 19 21 24 25 24 19 16 15 15 17 20 22 24 26 30 30 28 27 26 26 27 29 31 32 32 32
35 35 34 33 32 31 30 28 27 25 24 22 21 20 20 20 19 19 19 19 19 19 18 19 19 17 16 17 19 22 24 22 20 19 17 17 18 19 21 22 24 26 27 28 27 27 29 32 32 32 32 31
33 33 32 32 31 29 28 27 25 23 22 21 21 21 20 19 19 19 19 19 19 19 18 18 18 18 16 14 14 15 17 19 20 20 19 18 16 17 19 20 20 21 23 24 26 26 26 30 33 33 33 32
30 29 29 30 30 29 27 25 23 22 21 20 19 19 20 20 19 19 19 19 19 19 19 18 18 18 17 16 14 13 13 15 17 19 19 18 17 16 17 18 19 19 19 20 23 23 20 22 27 30 33 36
30 29 28 28 29 30 28 27 25 24 23 21 19 18 18 19 19 19 19 19 19 19 18 19 18 18 17 17 16 14 13 12 13 15 16 17 17 17 17 16 16 16 17 17 17 18 16 16 19 21 26 32
30 29 27 26 25 25 26 25 24 25 26 24 23 21 19 19 18 19 19 18 18 18 18 18 18 18 18 17 17 16 14 12 11 11 12 13 14 15 15 15 15 14 14 14 14 14 15 14 11 12 17 21
30 28 27 26 24 23 24 23 23 26 28 26 25 24 22 20 19 18 18 18 18 18 18 17 17 17 17 17 17 17 16 14 12 10 10 10 10 11 12 12 13 13 12 12 13 13 16 15 11 11 12 12
29 28 26 27 27 26 25 24 25 27 29 28 27 27 25 23 21 20 19 18 18 18 18 18 17 17 16 17 17 17 16 15 14 13 11 10 9 9 10 10 11 11 10 10 11 12 15 17 17 17 15 12
Wind_Direction
336 334 331 328 327 326 325 326 330 336 341 346 354 349 337 325 301 252 255 257 253 246 233 241 235 213 253 331 298 233 221 242 245 237 229 210 196 212 210 214 228 232 236 231 214 207 202 201 199 200 207 211
332 329 326 323 323 323 324 325 328 338 346 353 2 359 346 335 338 195 206 201 188 128 42 354 321 331 335 316 304 261 247 255 247 243 234 229 233 235 229 228 240 253 251 246 237 223 212 203 199 202 204 205
329 325 321 319 318 320 323 324 327 335 346 357 5 3 357 351 353 7 44 68 45 21 9 5 351 340 337 316 307 285 264 245 230 230 229 233 234 230 231 239 246 250 245 243 245 232 216 208 202 203 204 202
329 323 318 316 316 317 320 322 324 329 334 345 359 355 337 326 324 335 347 335 329 324 327 350 349 337 330 310 295 287 266 244 227 221 227 232 232 230 231 244 248 240 237 236 240 238 227 223 218 214 214 208
331 326 320 316 316 315 317 320 315 317 318 319 34 26 325 330 325 322 320 306 305 307 297 310 325 325 322 311 290 282 265 242 227 222 228 231 230 231 236 248 244 231 232 233 236 242 239 233 229 225 223 219
337 331 326 322 321 319 319 323 312 306 305 284 191 180 300 333 333 325 316 306 304 305 293 293 305 308 306 304 293 284 266 241 218 219 229 227 221 222 238 245 237 234 235 234 232 236 241 239 233 230 228 227
347 340 336 332 329 327 324 326 319 309 298 277 263 246 267 299 310 312 308 299 296 298 295 293 292 286 279 276 279 277 270 250 215 213 225 224 222 230 246 248 242 240 233 229 227 225 231 235 234 234 234 233
359 352 347 343 338 337 333 332 327 316 307 293 284 282 285 286 286 287 290 285 282 287 289 287 282 272 261 254 255 253 258 250 228 219 225 234 249 249 251 253 245 233 222 223 226 222 222 226 232 233 232 234
7 1 356 352 349 348 345 341 337 329 320 310 300 300 304 299 280 271 272 270 273 284 286 282 275 265 256 245 236 235 241 243 243 246 244 247 256 253 248 252 245 224 218 223 226 225 221 219 224 230 230 233
12 9 4 359 356 355 353 351 347 342 334 324 316 310 310 308 290 267 261 260 261 273 278 273 267 260 255 244 230 229 234 241 249 252 251 250 251 253 251 252 247 229 221 222 225 226 223 220 219 226 233 233
15 14 11 6 2 359 358 357 354 351 347 342 335 326 317 310 300 277 260 256 254 260 264 263 261 256 255 250 235 229 234 242 249 251 251 248 246 248 249 249 246 238 231 225 223 223 223 223 219 219 226 227
18 16 15 12 9 5 1 358 356 355 353 349 345 339 331 317 306 292 275 263 258 258 258 258 255 248 251 255 240 230 236 241 244 250 250 246 242 241 246 250 246 244 241 228 221 221 222 221 219 216 216 217
24 19 15 14 13 11 6 1 358 356 352 349 349 347 342 333 320 305 289 278 268 262 257 255 248 235 240 252 245 234 236 240 242 246 248 245 241 242 249 253 250 251 248 230 219 220 220 220 220 218 217 217
25 22 18 15 14 13 10 7 3 357 353 349 348 348 348 345 338 324 306 293 283 270 259 255 248 234 232 246 250 238 235 241 243 243 243 245 245 247 251 252 249 253 252 232 220 220 219 219 219 218 217 217
19 19 19 17 14 11 10 9 7 1 357 353 348 347 348 348 346 340 328 312 297 282 268 257 248 239 234 242 251 244 239 241 243 240 240 244 248 250 251 250 247 249 254 235 219 219 219 218 216 214 214 216
12 12 13 13 12 10 7 6 6 5 2 357 353 350 348 347 347 344 338 330 318 300 283 268 252 242 238 240 247 248 244 242 243 242 242 246 248 248 248 248 247 248 254 237 219 217 217 218 218 215 213 219
9 8 7 7 7 7 5 3 2 2 2 1 358 353 349 347 346 344 342 338 333 322 305 289 271 252 244 242 244 246 246 244 245 247 248 248 245 245 247 247 247 249 251 239 221 218 218 219 219 219 219 223
6 5 3 2 1 1 1 359 357 357 358 358 358 355 351 348 345 345 345 342 337 332 323 309 295 276 256 247 244 242 242 242 243 246 250 252 246 243 245 246 247 248 249 243 226 219 220 222 222 222 223 225
2 1 360 358 356 356 356 355 353 351 351 352 353 353 352 349 347 346 345 344 340 334 329 323 314 304 285 262 251 244 239 236 235 236 243 250 251 249 248 247 247 248 249 248 236 223 221 224 224 224 225 227
358 357 357 356 353 351 351 350 349 348 347 346 346 347 348 347 346 346 345 344 343 339 333 328 325 320 313 294 275 260 243 234 231 230 233 241 247 250 251 250 248 247 248 249 245 230 224 225 226 227 228 228
353 351 351 351 350 350 348 346 345 345 344 342 340 341 343 344 344 343 343 342 343 344 339 332 327 325 326 321 308 293 266 243 234 230 230 233 238 243 246 249 249 247 246 249 249 237 227 226 228 229 230 230
351 349 346 344 344 346 347 346 345 343 342 340 339 337 337 340 341 340 340 341 341 342 344 339 331 324 322 326 328 323 302 270 250 240 236 233 234 237 240 242 245 244 242 244 248 243 232 228 229 230 231 231
351 349 346 343 340 339 341 345 346 345 343 341 340 337 336 337 338 339 338 340 341 341 342 342 339 330 323 320 323 329 326 307 279 263 254 245 238 236 239 239 239 238 235 236 241 242 238 233 232 233 234 235
349 347 345 343 340 338 338 340 342 344 345 343 342 340 338 338 337 337 338 338 340 341 341 341 341 339 332 324 318 318 324 327 319 301 283 271 257 246 242 240 238 236 232 231 232 235 239 238 236 236 237 239
347 345 343 341 339 338 336 336 338 341 344 344 344 343 342 341 340 338 338 339 340 341 342 342 342 342 338 332 324 318 317 322 328 328 318 300 281 266 256 247 241 239 235 232 229 229 233 236 237 238 238 240
343 341 340 339 337 336 335 334 336 338 340 343 344 344 344 343 343 342 342 342 342 343 344 343 344 345 344 340 332 323 317 314 315 320 326 322 307 289 274 262 254 248 242 237 232 229 233 236 235 237 240 241
338 336 334 332 331 331 331 329 329 332 337 341 343 343 344 344 344 344 345 345 344 344 345 346 347 348 349 348 340 329 319 315 311 309 312 320 324 316 298 279 267 257 252 248 241 237 242 244 239 240 243 243
334 331 329 330 329 329 330 329 328 331 335 338 341 343 343 343 344 345 344 344 344 345 345 347 350 350 351 351 349 342 330 319 315 311 307 309 316 323 319 301 281 266 258 258 254 246 247 251 244 242 244 246
332 329 327 328 329 329 331 332 330 329 331 334 337 341 343 342 342 343 343 342 341 342 343 345 347 349 351 352 353 352 347 336 324 316 312 308 306 311 319 317 303 286 269 261 258 251 250 252 247 242 247 251
331 330 325 321 322 323 324 326 326 325 326 329 332 335 337 339 338 338 339 340 340 338 339 340 342 344 346 349 352 354 355 352 340 324 313 309 307 306 310 314 311 302 289 273 260 251 249 251 254 257 261 264
330 331 325 318 316 317 318 318 319 320 322 323 325 327 329 332 333 333 333 334 336 336 336 336 337 338 339 342 345 348 351 353 352 345 333 320 313 309 308 311 312 308 301 289 272 257 249 249 256 262 266 273